Cody, WY

12:06 AM MDT on March 24, 2017 (GMT -0600)
Yellowstone Regional

Weather History for KCOD - May, 2014

Change the Weather History Date:

Thursday, May 22, 2014

  Actual Average Record
Temperature  
Mean Temperature 61 °F -  
Max Temperature 71 °F 68 °F 88 °F (1919)
Min Temperature 51 °F 43 °F 27 °F (1918)
Degree Days  
Heating Degree Days 4    
Growing Degree Days 11 (Base 50)    
Moisture  
Dew Point 46 °F    
Average Humidity 57    
Maximum Humidity 82    
Minimum Humidity 35    
Precipitation  
Precipitation 0.00 in - - ()
Sea Level Pressure  
Sea Level Pressure 30.12 in    
Wind  
Wind Speed 4 mph (SSW)    
Max Wind Speed 13 mph    
Max Gust Speed -    
Visibility 10 miles    
Events      
Averages and records for this station are not official NWS values.
T = Trace of Precipitation, MM = Missing Value Source: NWS Daily Summary

Daily Weather History Graph

Daily Weather History Graph

Search for Another Location

Airport or City:

Trip Planner

Search our weather history database for the weather conditions in past years. The results will help you decide how hot, cold, wet, or windy it might be!

Date:

Astronomy

May. 22, 2014 Rise Set
Actual Time 5:41 AM MDT 8:44 PM MDT
Civil Twilight 5:06 AM MDT 9:19 PM MDT
Nautical Twilight 4:22 AM MDT 10:04 PM MDT
Astronomical Twilight 3:29 AM MDT 10:57 PM MDT
Moon 2:18 AM MDT (5/22) 2:21 PM MDT (5/22)
Length of Visible Light 16h 12m
Length of Day
15h 03m
Last Quarter, 37% of the Moon is Illuminated
May 22
Last Quarter
May 28
New
Jun 5
First Quarter
Jun 12
Full
Jun 19
Last Quarter

Hourly Weather History & Observations

Time (MDT) Temp. Dew Point Humidity Pressure Visibility Wind Dir Wind Speed Gust Speed Precip Events Conditions
12:15 AM 53.6 °F 46.4 °F 77% 30.10 in 10.0 mi Calm Calm - N/A   Mostly Cloudy
12:35 AM 55.4 °F 48.2 °F 77% 30.11 in 10.0 mi Calm Calm - N/A   Overcast
12:55 AM 55.4 °F 46.4 °F 72% 30.11 in 10.0 mi Calm Calm - N/A   Overcast
1:15 AM 55.4 °F 48.2 °F 77% 30.11 in 10.0 mi Calm Calm - N/A   Scattered Clouds
1:35 AM 55.4 °F 48.2 °F 77% 30.11 in 10.0 mi Calm Calm - N/A   Mostly Cloudy
1:55 AM 53.6 °F 48.2 °F 82% 30.11 in 10.0 mi South 6.9 mph - N/A   Mostly Cloudy
2:15 AM 53.6 °F 46.4 °F 77% 30.12 in 10.0 mi SSW 5.8 mph - N/A   Clear
2:35 AM 53.6 °F 46.4 °F 77% 30.12 in 10.0 mi SW 6.9 mph - N/A   Clear
2:55 AM 53.6 °F 46.4 °F 77% 30.12 in 10.0 mi WSW 4.6 mph - N/A   Mostly Cloudy
3:15 AM 53.6 °F 46.4 °F 77% 30.12 in 10.0 mi WSW 5.8 mph - N/A   Mostly Cloudy
3:35 AM 53.6 °F 46.4 °F 77% 30.12 in 10.0 mi Calm Calm - N/A   Scattered Clouds
3:55 AM 51.8 °F 44.6 °F 76% 30.12 in 10.0 mi SSW 3.5 mph - N/A   Clear
4:15 AM 51.8 °F 44.6 °F 76% 30.12 in 10.0 mi SW 8.1 mph - N/A   Clear
4:35 AM 53.6 °F 44.6 °F 72% 30.12 in 10.0 mi SW 9.2 mph - N/A   Clear
4:55 AM 51.8 °F 44.6 °F 76% 30.12 in 10.0 mi SW 6.9 mph - N/A   Clear
5:15 AM 51.8 °F 44.6 °F 76% 30.12 in 10.0 mi SW 8.1 mph - N/A   Clear
5:55 AM 51.8 °F 42.8 °F 71% 30.12 in 10.0 mi SW 8.1 mph - N/A   Clear
6:15 AM 53.6 °F 42.8 °F 67% 30.13 in 10.0 mi WSW 5.8 mph - N/A   Clear
6:35 AM 53.6 °F 44.6 °F 72% 30.13 in 10.0 mi WSW 3.5 mph - N/A   Clear
6:55 AM 53.6 °F 44.6 °F 72% 30.13 in 10.0 mi WSW 5.8 mph - N/A   Clear
7:15 AM 55.4 °F 44.6 °F 67% 30.14 in 10.0 mi SW 6.9 mph - N/A   Clear
7:35 AM 55.4 °F 44.6 °F 67% 30.14 in 10.0 mi WSW 6.9 mph - N/A   Clear
7:55 AM 57.2 °F 44.6 °F 63% 30.14 in 10.0 mi SW 12.7 mph - N/A   Clear
8:15 AM 57.2 °F 44.6 °F 63% 30.14 in 10.0 mi WSW 6.9 mph - N/A   Clear
8:35 AM 60.8 °F 46.4 °F 59% 30.15 in 10.0 mi SW 8.1 mph - N/A   Clear
8:55 AM 60.8 °F 46.4 °F 59% 30.15 in 10.0 mi WSW 8.1 mph - N/A   Clear
9:15 AM 62.6 °F 44.6 °F 52% 30.15 in 10.0 mi SW 6.9 mph - N/A   Clear
9:35 AM 64.4 °F 46.4 °F 52% 30.14 in 10.0 mi WSW 6.9 mph - N/A   Clear
9:55 AM - - N/A% 30.14 in 10.0 mi SW 3.5 mph - N/A   Clear
10:15 AM 64.4 °F 46.4 °F 52% 30.14 in 10.0 mi SSE 4.6 mph - N/A   Clear
10:35 AM 66.2 °F 48.2 °F 52% 30.14 in 10.0 mi ESE 3.5 mph - N/A   Clear
10:55 AM 66.2 °F 48.2 °F 52% 30.14 in 10.0 mi Calm Calm - N/A   Clear
11:15 AM 68.0 °F 50.0 °F 52% 30.13 in 10.0 mi East 3.5 mph - N/A   Clear
11:35 AM 68.0 °F 48.2 °F 49% 30.13 in 10.0 mi Calm Calm - N/A   Clear
11:55 AM 71.6 °F 50.0 °F 46% 30.13 in 10.0 mi SE 3.5 mph - N/A   Clear
12:15 PM 71.6 °F 48.2 °F 43% 30.12 in 10.0 mi SE 5.8 mph - N/A   Clear
12:35 PM 71.6 °F 48.2 °F 43% 30.12 in 10.0 mi East 5.8 mph - N/A   Clear
12:55 PM 71.6 °F 48.2 °F 43% 30.12 in 10.0 mi SSE 8.1 mph - N/A   Clear
1:15 PM 71.6 °F 48.2 °F 43% 30.12 in 10.0 mi SE 6.9 mph - N/A   Clear
1:35 PM 69.8 °F 48.2 °F 46% 30.11 in 10.0 mi ESE 10.4 mph - N/A   Clear
1:55 PM 69.8 °F 46.4 °F 43% 30.12 in 10.0 mi SE 9.2 mph - N/A   Clear
2:15 PM 69.8 °F 48.2 °F 46% 30.12 in 10.0 mi SE 9.2 mph - N/A   Scattered Clouds
3:15 PM 71.6 °F 48.2 °F 43% 30.12 in 10.0 mi Calm Calm - N/A   Clear
3:35 PM 71.6 °F 48.2 °F 43% 30.12 in 10.0 mi SE 9.2 mph - N/A   Clear
3:55 PM 71.6 °F 48.2 °F 43% 30.11 in 9.0 mi South 9.2 mph - N/A   Partly Cloudy
4:15 PM 69.8 °F 48.2 °F 46% 30.11 in 10.0 mi South 6.9 mph - N/A   Partly Cloudy
4:35 PM 69.8 °F 48.2 °F 46% 30.09 in 10.0 mi East 5.8 mph - N/A   Mostly Cloudy
4:55 PM 69.8 °F 46.4 °F 43% 30.09 in 10.0 mi Calm Calm - N/A   Partly Cloudy
5:15 PM 69.8 °F 48.2 °F 46% 30.10 in 10.0 mi Calm Calm - N/A   Clear
5:35 PM 71.6 °F 44.6 °F 38% 30.09 in 10.0 mi West 4.6 mph - N/A   Clear
5:55 PM 71.6 °F 44.6 °F 38% 30.08 in 10.0 mi WNW 4.6 mph - N/A   Clear
6:15 PM 69.8 °F 42.8 °F 38% 30.07 in 10.0 mi Calm Calm - N/A   Clear
6:35 PM 69.8 °F 42.8 °F 38% 30.07 in 10.0 mi Calm Calm - N/A   Clear
6:55 PM 71.6 °F 42.8 °F 35% 30.07 in 10.0 mi West 3.5 mph - N/A   Clear
7:15 PM 69.8 °F 48.2 °F 46% 30.07 in 10.0 mi North 5.8 mph - N/A   Clear
7:35 PM 68.0 °F 46.4 °F 46% 30.08 in 10.0 mi NE 5.8 mph - N/A   Clear
7:55 PM 68.0 °F 46.4 °F 46% 30.08 in 10.0 mi ENE 4.6 mph - N/A   Clear
8:15 PM 66.2 °F 48.2 °F 52% 30.09 in 10.0 mi ENE 3.5 mph - N/A   Clear
8:35 PM 66.2 °F 44.6 °F 46% 30.09 in 8.0 mi SE 3.5 mph - N/A   Clear
8:55 PM 62.6 °F 46.4 °F 55% 30.09 in 10.0 mi West 3.5 mph - N/A   Clear
9:15 PM 60.8 °F 46.4 °F 59% 30.10 in 10.0 mi SSW 3.5 mph - N/A   Clear
9:35 PM 59.0 °F 44.6 °F 59% 30.10 in 10.0 mi SSW 4.6 mph - N/A   Clear
9:55 PM 60.8 °F 42.8 °F 52% 30.11 in 10.0 mi Calm Calm - N/A   Clear
10:15 PM 59.0 °F 42.8 °F 55% 30.13 in 10.0 mi ESE 12.7 mph - N/A   Clear
10:35 PM 60.8 °F 41.0 °F 48% 30.13 in 10.0 mi SE 10.4 mph - N/A   Clear
10:55 PM 57.2 °F 42.8 °F 59% 30.14 in 10.0 mi South 9.2 mph - N/A   Clear
11:15 PM 59.0 °F 41.0 °F 51% 30.13 in 10.0 mi WSW 4.6 mph - N/A   Clear
11:35 PM 57.2 °F 39.2 °F 51% 30.13 in 10.0 mi NE 6.9 mph - N/A   Clear
11:55 PM 55.4 °F 41.0 °F 58% 30.14 in 10.0 mi East 3.5 mph - N/A   Clear